Location: Bonneuil
(46.1010°N, 2.9693°E)
Time: 22:07:40
(UTC+00:00)

Cosmos 1833 Rocket - Pass Details

Date: 09 April 2020
Orbit: 834 x 838 km, 71.0° (Epoch: 24 May)

Event Time Altitude Azimuth Distance (km) Brightness Sun altitude
Exits shadow 22:20:45 45° 291° (WNW) 1,124 3.5 -32.4°
Maximum altitude 22:21:08 46° 303° (WNW) 1,113 3.5 -32.4°
Drops below altitude 10° 22:26:33 10° 17° (NNE) 2,461 5.6 -32.8°
Sets 22:29:07 0° 23° (NNE) 3,398 6.4 -33.0°
